FW9769 Weather Reports


time (UTC)temp
C
wind
direction
speed
KPH
gust
KPH
rain 1hr
cm
rain 24hr
cm
rain mn
cm
humidity
%
barometer
mb
20260505072759 16 242 3.2 4.8 0.00 0.00 0.00 74 1007.9
20260505072255 16 286 4.8 11.3 0.00 0.00 0.00 72 1007.9
20260505071751 15 5 0.0 3.2 0.00 0.00 0.00 79 1007.8
20260505071247 16 293 0.0 1.6 0.00 0.00 0.00 78 1007.5
20260505070745 16 229 0.0 3.2 0.00 0.00 0.00 77 1007.3
20260505070241 16 119 1.6 3.2 0.00 0.00 0.00 74 1007.1
20260505065737 16 134 1.6 3.2 0.00 0.00 0.00 72 1007.2
20260505065234 16 130 0.0 0.0 0.00 0.00 0.00 74 1007.3
20260505064731 16 197 0.0 3.2 0.00 0.00 0.00 74 1007.3
20260505064229 16 235 0.0 1.6 0.00 0.00 0.00 72 1007.4
20260505063726 16 63 0.0 1.6 0.00 0.00 0.00 69 1007.3
20260505063222 16 221 0.0 3.2 0.00 0.00 0.00 66 1007.3
20260505062719 16 132 0.0 0.0 0.00 0.00 0.00 66 1007.1
20260505062217 17 173 0.0 1.6 0.00 0.00 0.00 67 1006.9
20260505061713 17 217 0.0 3.2 0.00 0.00 0.00 67 1007.3
20260505061211 17 304 0.0 1.6 0.00 0.00 0.00 65 1007.1
20260505060708 17 353 0.0 4.8 0.00 0.00 0.00 65 1007.0
20260505060205 17 233 0.0 1.6 0.00 0.00 0.00 65 1006.7
20260505055700 17 211 0.0 3.2 0.00 0.00 0.00 64 1006.6
20260505055157 17 246 3.2 4.8 0.00 0.00 0.00 64 1006.3
20260505054655 17 178 6.4 6.4 0.00 0.00 0.00 63 1006.4
20260505054153 17 163 1.6 3.2 0.00 0.00 0.00 65 1006.3
20260505053650 17 173 3.2 4.8 0.00 0.00 0.00 62 1006.4
20260505053146 17 177 3.2 4.8 0.00 0.00 0.00 63 1006.2
20260505052643 17 217 1.6 3.2 0.00 0.00 0.00 63 1006.0
20260505052141 17 171 3.2 6.4 0.00 0.00 0.00 63 1005.9
20260505051637 17 183 1.6 3.2 0.00 0.00 0.00 63 1006.0
20260505051136 17 224 0.0 8.0 0.00 0.00 0.00 62 1005.8
20260505050633 17 184 6.4 6.4 0.00 0.00 0.00 63 1005.9
20260505050131 17 176 4.8 4.8 0.00 0.00 0.00 63 1005.9
20260505041601 18 192 8.0 8.0 0.00 0.00 0.00 60 1006.3
20260505041058 18 158 3.2 9.7 0.00 0.00 0.00 61 1006.4
20260505040555 18 157 1.6 6.4 0.00 0.00 0.00 61 1006.4
20260505040053 18 179 3.2 4.8 0.00 0.00 0.00 60 1006.6
20260505035549 18 184 3.2 4.8 0.00 0.00 0.00 61 1006.5
20260505035045 18 141 0.0 6.4 0.00 0.00 0.00 61 1006.6
20260505034542 18 113 1.6 8.0 0.00 0.00 0.00 61 1006.8
20260505034039 18 155 1.6 4.8 0.00 0.00 0.00 61 1006.7
20260505033536 18 190 6.4 6.4 0.00 0.00 0.00 60 1006.4
20260505033034 18 192 4.8 6.4 0.00 0.00 0.00 60 1006.8
20260505032531 18 95 3.2 4.8 0.00 0.00 0.00 61 1006.6
20260505032028 18 186 4.8 8.0 0.00 0.00 0.00 60 1006.7
20260505031525 18 166 1.6 4.8 0.00 0.00 0.00 60 1006.7
20260505031021 18 195 3.2 4.8 0.00 0.00 0.00 60 1006.8
20260505030518 18 174 3.2 3.2 0.00 0.00 0.00 60 1006.7
20260505030015 18 147 0.0 1.6 0.00 0.00 0.00 63 1006.9
20260505025510 18 196 3.2 3.2 0.00 0.00 0.00 62 1006.8
20260505025010 18 131 0.0 3.2 0.00 0.00 0.00 63 1006.8
20260505024506 18 192 1.6 3.2 0.00 0.00 0.00 61 1006.6
20260505024003 18 168 4.8 6.4 0.00 0.00 0.00 60 1006.6
20260505023500 18 167 3.2 3.2 0.00 0.00 0.00 62 1006.6
20260505022957 18 184 4.8 4.8 0.00 0.00 0.00 63 1006.5
20260505022455 18 132 3.2 4.8 0.00 0.00 0.00 65 1006.6
20260505021952 18 181 3.2 3.2 0.00 0.00 0.00 64 1006.4
20260505021448 18 143 0.0 4.8 0.00 0.00 0.00 65 1006.3
20260505020944 18 167 0.0 3.2 0.00 0.00 0.00 64 1006.3
20260505020439 18 217 0.0 3.2 0.00 0.00 0.00 65 1006.2
20260505015937 18 183 3.2 4.8 0.00 0.00 0.00 63 1005.8
20260505015434 18 113 0.0 3.2 0.00 0.00 0.00 64 1005.7
20260505014931 18 170 3.2 4.8 0.00 0.00 0.00 61 1005.7
20260505014428 19 208 3.2 3.2 0.00 0.00 0.00 59 1005.6
20260505013925 20 200 3.2 6.4 0.00 0.00 0.00 58 1005.5
20260505013422 19 181 3.2 4.8 0.00 0.00 0.00 59 1005.6
20260505012920 20 177 0.0 4.8 0.00 0.00 0.00 59 1005.6
20260505012418 19 126 0.0 3.2 0.00 0.00 0.00 62 1005.6
20260505011914 19 171 1.6 3.2 0.00 0.00 0.00 59 1005.4
20260505011410 19 183 3.2 6.4 0.00 0.00 0.00 58 1005.4
20260505010907 19 147 0.0 4.8 0.00 0.00 0.00 60 1005.5
20260505010403 20 140 0.0 3.2 0.00 0.00 0.00 59 1005.5
20260505005859 20 194 3.2 3.2 0.00 0.00 0.00 58 1005.5
20260505005355 20 149 3.2 4.8 0.00 0.00 0.00 57 1005.4
20260505004853 20 142 0.0 6.4 0.00 0.00 0.00 58 1005.5
20260505004349 20 132 0.0 4.8 0.00 0.00 0.00 58 1005.5
20260505003847 20 119 0.0 4.8 0.00 0.00 0.00 57 1005.5
20260505003344 20 182 3.2 3.2 0.00 0.00 0.00 57 1005.3
20260505002839 21 180 0.0 0.0 0.00 0.00 0.00 56 1005.4
20260505002337 21 215 1.6 6.4 0.00 0.00 0.00 54 1005.5
20260505001835 21 144 3.2 4.8 0.00 0.00 0.00 53 1005.4
20260505001332 21 188 1.6 6.4 0.00 0.00 0.00 53 1005.4
20260505000829 21 228 0.0 4.8 0.00 0.00 0.00 54 1005.4
20260505000327 21 200 0.0 4.8 0.00 0.00 0.00 53 1005.5
20260504235823 22 300 3.2 6.4 0.00 0.00 0.00 52 1005.6
20260504235320 22 208 3.2 6.4 0.00 0.00 0.00 51 1005.7
20260504234817 22 176 1.6 3.2 0.00 0.00 0.00 50 1005.5
20260504234315 22 224 3.2 9.7 0.00 0.00 0.00 50 1005.6
20260504233811 22 142 1.6 4.8 0.00 0.00 0.00 52 1005.7
20260504233306 22 144 1.6 3.2 0.00 0.00 0.00 50 1005.7
20260504232803 21 163 3.2 8.0 0.00 0.00 0.00 50 1005.9
20260504232301 22 294 3.2 8.0 0.00 0.00 0.00 52 1005.8
20260504231758 22 218 6.4 9.7 0.00 0.00 0.00 50 1005.9
20260504231254 21 202 1.6 4.8 0.00 0.00 0.00 59 1006.0
20260504230750 21 177 4.8 4.8 0.00 0.00 0.00 55 1006.2
20260504230248 22 180 3.2 6.4 0.00 0.00 0.00 55 1006.0
20260504225747 22 180 6.4 8.0 0.00 0.00 0.00 53 1006.2
20260504225243 22 201 3.2 4.8 0.00 0.00 0.00 56 1006.2
20260504224740 22 202 1.6 6.4 0.00 0.00 0.00 54 1006.2
20260504224237 22 173 3.2 4.8 0.00 0.00 0.00 52 1006.3
20260504223733 22 188 3.2 6.4 0.00 0.00 0.00 52 1006.3
20260504223229 22 177 3.2 8.0 0.00 0.00 0.00 51 1006.4
20260504222726 22 183 6.4 8.0 0.00 0.00 0.00 51 1006.4
20260504222223 22 177 3.2 6.4 0.00 0.00 0.00 52 1006.7
20260504221721 22 300 0.0 6.4 0.00 0.00 0.00 55 1006.6
20260504221218 22 269 0.0 3.2 0.00 0.00 0.00 54 1006.8
20260504220714 21 129 0.0 3.2 0.00 0.00 0.00 56 1007.0
20260504220212 21 144 1.6 6.4 0.00 0.00 0.00 54 1007.0
20260504215708 22 243 0.0 3.2 0.00 0.00 0.00 55 1006.9
20260504215205 22 185 3.2 8.0 0.00 0.00 0.00 54 1006.7
20260504214701 22 254 1.6 3.2 0.00 0.00 0.00 55 1006.5
20260504214157 22 208 1.6 3.2 0.00 0.00 0.00 53 1006.6
20260504213654 22 191 4.8 6.4 0.00 0.00 0.00 56 1006.7
20260504213151 22 203 3.2 8.0 0.00 0.00 0.00 55 1006.7
20260504212647 21 156 3.2 4.8 0.00 0.00 0.00 56 1006.9
20260504212144 21 88 3.2 4.8 0.00 0.00 0.00 57 1007.2
20260504211642 21 63 0.0 4.8 0.00 0.00 0.00 58 1007.4
20260504211138 21 226 8.0 8.0 0.00 0.00 0.00 57 1007.8
20260504210636 21 322 0.0 3.2 0.00 0.00 0.00 58 1007.6
20260504210132 21 244 1.6 8.0 0.00 0.00 0.00 56 1007.8
20260504205629 21 263 3.2 6.4 0.00 0.00 0.00 56 1007.7
20260504205127 21 168 4.8 6.4 0.00 0.00 0.00 56 1007.8
20260504204625 21 106 6.4 6.4 0.00 0.00 0.00 59 1007.7
20260504204124 21 222 3.2 11.3 0.00 0.00 0.00 59 1007.8
20260504203622 21 234 3.2 4.8 0.00 0.00 0.00 62 1007.9
20260504203119 20 288 6.4 6.4 0.00 0.00 0.00 63 1007.7
20260504202614 20 179 3.2 6.4 0.00 0.00 0.00 62 1007.7
20260504202111 20 207 4.8 8.0 0.00 0.00 0.00 64 1007.7
20260504201608 19 180 1.6 3.2 0.00 0.00 0.00 64 1008.0
20260504201106 19 222 1.6 3.2 0.00 0.00 0.00 65 1008.2
20260504200602 19 176 4.8 6.4 0.00 0.00 0.00 64 1008.4
20260504200059 19 198 3.2 4.8 0.00 0.00 0.00 65 1008.3
20260504195555 20 318 3.2 6.4 0.00 0.00 0.00 63 1008.5
20260504195051 19 245 1.6 4.8 0.00 0.00 0.00 63 1008.7
20260504194548 19 168 0.0 4.8 0.00 0.00 0.00 62 1008.3
20260504194043 20 154 0.0 4.8 0.00 0.00 0.00 61 1008.1
20260504193540 20 33 1.6 4.8 0.00 0.00 0.00 60 1008.2
20260504193039 20 305 4.8 6.4 0.00 0.00 0.00 60 1008.4
20260504192537 19 220 1.6 6.4 0.00 0.00 0.00 61 1008.2
20260504192035 18 52 0.0 9.7 0.00 0.00 0.00 64 1008.2
20260504191532 19 254 3.2 4.8 0.00 0.00 0.00 64 1008.3
20260504191028 19 191 3.2 12.9 0.00 0.00 0.00 66 1008.8
20260504190525 19 269 0.0 3.2 0.00 0.00 0.00 65 1008.8
20260504190021 19 292 3.2 3.2 0.00 0.00 0.00 64 1008.9
20260504185518 18 197 3.2 6.4 0.00 0.00 0.00 66 1008.8
20260504185014 18 176 8.0 8.0 0.00 0.00 0.00 67 1008.9
20260504184510 18 179 3.2 3.2 0.00 0.00 0.00 69 1008.9
20260504184006 18 188 4.8 4.8 0.00 0.00 0.00 69 1009.1
20260504183503 18 184 4.8 8.0 0.00 0.00 0.00 67 1009.2
20260504183001 18 282 1.6 6.4 0.00 0.00 0.00 65 1009.4
20260504182457 19 212 8.0 9.7 0.00 0.00 0.00 61 1009.1
20260504181955 20 308 1.6 6.4 0.00 0.00 0.00 61 1009.0
20260504181452 20 251 4.8 11.3 0.00 0.00 0.00 60 1009.3
20260504180950 20 287 4.8 6.4 0.00 0.00 0.00 59 1009.0
20260504180449 20 305 4.8 6.4 0.00 0.00 0.00 59 1008.9
20260504175947 20 177 4.8 11.3 0.00 0.00 0.00 57 1008.5
20260504175444 20 168 1.6 12.9 0.00 0.00 0.00 58 1008.8
20260504174941 21 228 3.2 9.7 0.00 0.00 0.00 62 1008.8
20260504174438 21 167 3.2 9.7 0.00 0.00 0.00 55 1008.5
20260504173936 21 247 3.2 9.7 0.00 0.00 0.00 57 1008.4
20260504173432 21 137 1.6 8.0 0.00 0.00 0.00 58 1008.3
20260504172930 21 345 0.0 6.4 0.00 0.00 0.00 59 1008.3
20260504172425 21 180 4.8 4.8 0.00 0.00 0.00 58 1008.1
20260504171922 21 213 0.0 4.8 0.00 0.00 0.00 57 1008.2
20260504171420 21 172 8.0 11.3 0.00 0.00 0.00 56 1008.2
20260504170916 21 287 4.8 8.0 0.00 0.00 0.00 62 1008.4
20260504170413 21 79 1.6 11.3 0.00 0.00 0.00 60 1008.6
20260504160331 18 153 3.2 3.2 0.00 0.00 0.00 63 1009.2
20260504150756 17 186 0.0 4.8 0.00 0.00 0.00 63 1009.3
20260504150253 18 162 1.6 9.7 0.00 0.00 0.00 60 1009.2
20260504141223 17 239 3.2 6.4 0.00 0.00 0.00 62 1009.3
20260504140719 17 162 1.6 8.0 0.00 0.00 0.00 61 1009.3
20260504140215 17 172 3.2 6.4 0.00 0.00 0.00 61 1009.6
20260504130643 13 128 3.2 4.8 0.00 0.00 0.00 72 1009.6
20260504130140 13 101 0.0 4.8 0.00 0.00 0.00 71 1009.6
20260504120104 11 107 0.0 3.2 0.00 0.00 0.00 75 1009.5
20260504110531 10 162 1.6 3.2 0.00 0.00 0.00 77 1009.6
20260504100453 8 119 0.0 3.2 0.00 0.00 0.00 82 1009.9
20260504081846 10 147 0.0 3.2 0.00 0.00 0.00 74 1010.6
20260504081343 10 165 1.6 3.2 0.00 0.00 0.00 68 1010.6
20260504080839 10 140 1.6 3.2 0.00 0.00 0.00 67 1010.6
20260504080336 10 119 3.2 3.2 0.00 0.00 0.00 67 1010.6